Year,Month,Day,Hour,Minute,Value (Times are PST for temperature in C)
2016,04,20,00,00,10.80
2016,04,20,00,01,10.80
2016,04,20,00,02,10.70
2016,04,20,00,03,10.70
2016,04,20,00,04,10.70
2016,04,20,00,05,10.70
2016,04,20,00,06,10.70
2016,04,20,00,07,10.70
2016,04,20,00,08,10.60
2016,04,20,00,09,10.60
2016,04,20,00,10,10.60
2016,04,20,00,11,10.60
2016,04,20,00,12,10.60
2016,04,20,00,13,10.50
2016,04,20,00,14,10.50
2016,04,20,00,15,10.50
2016,04,20,00,16,10.50
2016,04,20,00,17,10.50
2016,04,20,00,18,10.60
2016,04,20,00,19,10.60
2016,04,20,00,20,10.60
2016,04,20,00,21,10.50
2016,04,20,00,22,10.50
2016,04,20,00,23,10.50
2016,04,20,00,24,10.50
2016,04,20,00,25,10.50
2016,04,20,00,26,10.50
2016,04,20,00,27,10.40
2016,04,20,00,28,10.40
2016,04,20,00,29,10.40
2016,04,20,00,30,10.40
2016,04,20,00,31,10.40
2016,04,20,00,32,10.40
2016,04,20,00,33,10.40
2016,04,20,00,34,10.40
2016,04,20,00,35,10.40
2016,04,20,00,36,10.40
2016,04,20,00,37,10.30
2016,04,20,00,38,10.30
2016,04,20,00,39,10.30
2016,04,20,00,40,10.30
2016,04,20,00,41,10.30
2016,04,20,00,42,10.30
2016,04,20,00,43,10.30
2016,04,20,00,44,10.30
2016,04,20,00,45,10.20
2016,04,20,00,46,10.20
2016,04,20,00,47,10.20
2016,04,20,00,48,10.20
2016,04,20,00,49,10.20
2016,04,20,00,50,10.20
2016,04,20,00,51,10.20
2016,04,20,00,52,10.20
2016,04,20,00,53,10.20
2016,04,20,00,54,10.20
2016,04,20,00,55,10.20
2016,04,20,00,56,10.20
2016,04,20,00,57,10.10
2016,04,20,00,58,10.10
2016,04,20,00,59,10.10
2016,04,20,01,00,10.10
2016,04,20,01,01,10.10
2016,04,20,01,02,10.00
2016,04,20,01,03,10.00
2016,04,20,01,04,10.00
2016,04,20,01,05,9.90
2016,04,20,01,06,9.90
2016,04,20,01,07,9.90
2016,04,20,01,08,9.90
2016,04,20,01,09,9.90
2016,04,20,01,10,9.90
2016,04,20,01,11,9.90
2016,04,20,01,12,9.80
2016,04,20,01,13,9.80
2016,04,20,01,14,9.80
2016,04,20,01,15,9.70
2016,04,20,01,16,9.70
2016,04,20,01,17,9.70
2016,04,20,01,18,9.70
2016,04,20,01,19,9.70
2016,04,20,01,20,9.70
2016,04,20,01,21,9.70
2016,04,20,01,22,9.70
2016,04,20,01,23,9.60
2016,04,20,01,24,9.60
2016,04,20,01,25,9.60
2016,04,20,01,26,9.60
2016,04,20,01,27,9.60
2016,04,20,01,28,9.60
2016,04,20,01,29,9.60
2016,04,20,01,30,9.60
2016,04,20,01,31,9.70
2016,04,20,01,32,9.70
2016,04,20,01,33,9.70
2016,04,20,01,34,9.70
2016,04,20,01,35,9.70
2016,04,20,01,36,9.70
2016,04,20,01,37,9.80
2016,04,20,01,38,9.80
2016,04,20,01,39,9.80
2016,04,20,01,40,9.80
2016,04,20,01,41,9.80
2016,04,20,01,42,9.80
2016,04,20,01,43,9.80
2016,04,20,01,44,9.80
2016,04,20,01,45,9.80
2016,04,20,01,46,9.80
2016,04,20,01,47,9.80
2016,04,20,01,48,9.80
2016,04,20,01,49,9.80
2016,04,20,01,50,9.70
2016,04,20,01,51,9.70
2016,04,20,01,52,9.60
2016,04,20,01,53,9.60
2016,04,20,01,54,9.50
2016,04,20,01,55,9.50
2016,04,20,01,56,9.40
2016,04,20,01,57,9.40
2016,04,20,01,58,9.40
2016,04,20,01,59,9.40
2016,04,20,02,00,9.40
2016,04,20,02,01,9.30
2016,04,20,02,02,9.30
2016,04,20,02,03,9.30
2016,04,20,02,04,9.30
2016,04,20,02,05,9.30
2016,04,20,02,06,9.30
2016,04,20,02,07,9.30
2016,04,20,02,08,9.20
2016,04,20,02,09,9.20
2016,04,20,02,10,9.20
2016,04,20,02,11,9.20
2016,04,20,02,12,9.20
2016,04,20,02,13,9.20
2016,04,20,02,14,9.20
2016,04,20,02,15,9.20
2016,04,20,02,16,9.20
2016,04,20,02,17,9.20
2016,04,20,02,18,9.20
2016,04,20,02,19,9.20
2016,04,20,02,20,9.20
2016,04,20,02,21,9.20
2016,04,20,02,22,9.20
2016,04,20,02,23,9.10
2016,04,20,02,24,9.10
2016,04,20,02,25,9.10
2016,04,20,02,26,9.10
2016,04,20,02,27,9.10
2016,04,20,02,28,9.10
2016,04,20,02,29,9.10
2016,04,20,02,30,9.10
2016,04,20,02,31,9.00
2016,04,20,02,32,9.00
2016,04,20,02,33,9.00
2016,04,20,02,34,9.00
2016,04,20,02,35,9.00
2016,04,20,02,36,8.90
2016,04,20,02,37,8.90
2016,04,20,02,38,8.90
2016,04,20,02,39,8.90
2016,04,20,02,40,8.90
2016,04,20,02,41,8.90
2016,04,20,02,42,8.90
2016,04,20,02,43,8.90
2016,04,20,02,44,8.90
2016,04,20,02,45,8.90
2016,04,20,02,46,8.90
2016,04,20,02,47,8.90
2016,04,20,02,48,8.90
2016,04,20,02,49,8.90
2016,04,20,02,50,8.90
2016,04,20,02,51,8.90
2016,04,20,02,52,8.90
2016,04,20,02,53,8.90
2016,04,20,02,54,8.90
2016,04,20,02,55,8.90
2016,04,20,02,56,8.90
2016,04,20,02,57,8.90
2016,04,20,02,58,8.90
2016,04,20,02,59,8.90
2016,04,20,03,00,8.90
2016,04,20,03,01,8.90
2016,04,20,03,02,8.90
2016,04,20,03,03,8.90
2016,04,20,03,04,8.90
2016,04,20,03,05,8.90
2016,04,20,03,06,8.90
2016,04,20,03,07,8.90
2016,04,20,03,08,8.90
2016,04,20,03,09,8.80
2016,04,20,03,10,8.80
2016,04,20,03,11,8.80
2016,04,20,03,12,8.80
2016,04,20,03,13,8.80
2016,04,20,03,14,8.80
2016,04,20,03,15,8.80
2016,04,20,03,16,8.80
2016,04,20,03,17,8.80
2016,04,20,03,18,8.80
2016,04,20,03,19,8.80
2016,04,20,03,20,8.80
2016,04,20,03,21,8.80
2016,04,20,03,22,8.70
2016,04,20,03,23,8.70
2016,04,20,03,24,8.70
2016,04,20,03,25,8.70
2016,04,20,03,26,8.70
2016,04,20,03,27,8.70
2016,04,20,03,28,8.70
2016,04,20,03,29,8.70
2016,04,20,03,30,8.70
2016,04,20,03,31,8.70
2016,04,20,03,32,8.70
2016,04,20,03,33,8.70
2016,04,20,03,34,8.70
2016,04,20,03,35,8.70
2016,04,20,03,36,8.70
2016,04,20,03,37,8.70
2016,04,20,03,38,8.70
2016,04,20,03,39,8.70
2016,04,20,03,40,8.60
2016,04,20,03,41,8.60
2016,04,20,03,42,8.60
2016,04,20,03,43,8.60
2016,04,20,03,44,8.50
2016,04,20,03,45,8.50
2016,04,20,03,46,8.40
2016,04,20,03,47,8.40
2016,04,20,03,48,8.40
2016,04,20,03,49,8.40
2016,04,20,03,50,8.40
2016,04,20,03,51,8.40
2016,04,20,03,52,8.40
2016,04,20,03,53,8.40
2016,04,20,03,54,8.40
2016,04,20,03,55,8.30
2016,04,20,03,56,8.30
2016,04,20,03,57,8.20
2016,04,20,03,58,8.20
2016,04,20,03,59,8.10
2016,04,20,04,00,8.10
2016,04,20,04,01,8.10
2016,04,20,04,02,8.10
2016,04,20,04,03,8.10
2016,04,20,04,04,8.10
2016,04,20,04,05,8.10
2016,04,20,04,06,8.10
2016,04,20,04,07,8.10
2016,04,20,04,08,8.20
2016,04,20,04,09,8.20
2016,04,20,04,10,8.20
2016,04,20,04,11,8.20
2016,04,20,04,12,8.20
2016,04,20,04,13,8.20
2016,04,20,04,14,8.20
2016,04,20,04,15,8.20
2016,04,20,04,16,8.10
2016,04,20,04,17,8.10
2016,04,20,04,18,8.10
2016,04,20,04,19,8.10
2016,04,20,04,20,8.10
2016,04,20,04,21,8.10
2016,04,20,04,22,8.10
2016,04,20,04,23,8.10
2016,04,20,04,24,8.10
2016,04,20,04,25,8.10
2016,04,20,04,26,8.10
2016,04,20,04,27,8.10
2016,04,20,04,28,8.10
2016,04,20,04,29,8.10
2016,04,20,04,30,8.10
2016,04,20,04,31,8.10
2016,04,20,04,32,8.10
2016,04,20,04,33,8.00
2016,04,20,04,34,8.00
2016,04,20,04,35,8.00
2016,04,20,04,36,7.90
2016,04,20,04,37,7.90
2016,04,20,04,38,7.90
2016,04,20,04,39,7.80
2016,04,20,04,40,7.80
2016,04,20,04,41,7.80
2016,04,20,04,42,7.80
2016,04,20,04,43,7.80
2016,04,20,04,44,7.70
2016,04,20,04,45,7.70
2016,04,20,04,46,7.70
2016,04,20,04,47,7.70
2016,04,20,04,48,7.70
2016,04,20,04,49,7.70
2016,04,20,04,50,7.70
2016,04,20,04,51,7.70
2016,04,20,04,52,7.70
2016,04,20,04,53,7.60
2016,04,20,04,54,7.60
2016,04,20,04,55,7.60
2016,04,20,04,56,7.60
2016,04,20,04,57,7.60
2016,04,20,04,58,7.60
2016,04,20,04,59,7.60
2016,04,20,05,00,7.60
2016,04,20,05,01,7.60
2016,04,20,05,02,7.60
2016,04,20,05,03,7.60
2016,04,20,05,04,7.60
2016,04,20,05,05,7.60
2016,04,20,05,06,7.60
2016,04,20,05,07,7.60
2016,04,20,05,08,7.50
2016,04,20,05,09,7.50
2016,04,20,05,10,7.50
2016,04,20,05,11,7.50
2016,04,20,05,12,7.50
2016,04,20,05,13,7.50
2016,04,20,05,14,7.50
2016,04,20,05,15,7.50
2016,04,20,05,16,7.50
2016,04,20,05,17,7.50
2016,04,20,05,18,7.40
2016,04,20,05,19,7.40
2016,04,20,05,20,7.40
2016,04,20,05,21,7.40
2016,04,20,05,22,7.40
2016,04,20,05,23,7.50
2016,04,20,05,24,7.50
2016,04,20,05,25,7.50
2016,04,20,05,26,7.50
2016,04,20,05,27,7.50
2016,04,20,05,28,7.40
2016,04,20,05,29,7.40
2016,04,20,05,30,7.40
2016,04,20,05,31,7.40
2016,04,20,05,32,7.40
2016,04,20,05,33,7.40
2016,04,20,05,34,7.40
2016,04,20,05,35,7.40
2016,04,20,05,36,7.40
2016,04,20,05,37,7.40
2016,04,20,05,38,7.40
2016,04,20,05,39,7.30
2016,04,20,05,40,7.30
2016,04,20,05,41,7.30
2016,04,20,05,42,7.30
2016,04,20,05,43,7.30
2016,04,20,05,44,7.30
2016,04,20,05,45,7.20
2016,04,20,05,46,7.20
2016,04,20,05,47,7.20
2016,04,20,05,48,7.20
2016,04,20,05,49,7.20
2016,04,20,05,50,7.20
2016,04,20,05,51,7.20
2016,04,20,05,52,7.20
2016,04,20,05,53,7.20
2016,04,20,05,54,7.20
2016,04,20,05,55,7.20
2016,04,20,05,56,7.20
2016,04,20,05,57,7.20
2016,04,20,05,58,7.20
2016,04,20,05,59,7.20
2016,04,20,06,00,7.10
2016,04,20,06,01,7.10
2016,04,20,06,02,7.10
2016,04,20,06,03,7.10
2016,04,20,06,04,7.10
2016,04,20,06,05,7.10
2016,04,20,06,06,7.10
2016,04,20,06,07,7.10
2016,04,20,06,08,7.10
2016,04,20,06,09,7.10
2016,04,20,06,10,7.10
2016,04,20,06,11,7.10
2016,04,20,06,12,7.20
2016,04,20,06,13,7.20
2016,04,20,06,14,7.20
2016,04,20,06,15,7.20
2016,04,20,06,16,7.20
2016,04,20,06,17,7.20
2016,04,20,06,18,7.20
2016,04,20,06,19,7.20
2016,04,20,06,20,7.10
2016,04,20,06,21,7.10
2016,04,20,06,22,7.10
2016,04,20,06,23,7.10
2016,04,20,06,24,7.00
2016,04,20,06,25,7.00
2016,04,20,06,26,7.00
2016,04,20,06,27,6.90
2016,04,20,06,28,6.90
2016,04,20,06,29,6.90
2016,04,20,06,30,6.90
2016,04,20,06,31,6.90
2016,04,20,06,32,6.90
2016,04,20,06,33,6.90
2016,04,20,06,34,6.90
2016,04,20,06,35,6.90
2016,04,20,06,36,6.90
2016,04,20,06,37,6.90
2016,04,20,06,38,6.90
2016,04,20,06,39,6.90
2016,04,20,06,40,6.90
2016,04,20,06,41,6.90
2016,04,20,06,42,7.00
2016,04,20,06,43,7.00
2016,04,20,06,44,7.00
2016,04,20,06,45,7.00
2016,04,20,06,46,7.00
2016,04,20,06,47,7.00
2016,04,20,06,48,7.00
2016,04,20,06,49,7.00
2016,04,20,06,50,7.10
2016,04,20,06,51,7.10
2016,04,20,06,52,7.10
2016,04,20,06,53,7.10
2016,04,20,06,54,7.10
2016,04,20,06,55,7.10
2016,04,20,06,56,7.10
2016,04,20,06,57,7.10
2016,04,20,06,58,7.10
2016,04,20,06,59,7.10
2016,04,20,07,00,7.10
2016,04,20,07,01,7.10
2016,04,20,07,02,7.10
2016,04,20,07,03,7.10
2016,04,20,07,04,7.10
2016,04,20,07,05,7.10
2016,04,20,07,06,7.10
2016,04,20,07,07,7.10
2016,04,20,07,08,7.10
2016,04,20,07,09,7.10
2016,04,20,07,10,7.10
2016,04,20,07,11,7.10
2016,04,20,07,12,7.10
2016,04,20,07,13,7.10
2016,04,20,07,14,7.10
2016,04,20,07,15,7.10
2016,04,20,07,16,7.10
2016,04,20,07,17,7.10
2016,04,20,07,18,7.00
2016,04,20,07,19,7.00
2016,04,20,07,20,6.90
2016,04,20,07,21,6.90
2016,04,20,07,22,6.90
2016,04,20,07,23,6.90
2016,04,20,07,24,6.90
2016,04,20,07,25,6.90
2016,04,20,07,26,6.90
2016,04,20,07,27,6.90
2016,04,20,07,28,6.90
2016,04,20,07,29,7.00
2016,04,20,07,30,7.00
2016,04,20,07,31,7.10
2016,04,20,07,32,7.10
2016,04,20,07,33,7.10
2016,04,20,07,34,7.20
2016,04,20,07,35,7.20
2016,04,20,07,36,7.30
2016,04,20,07,37,7.30
2016,04,20,07,38,7.30
2016,04,20,07,39,7.40
2016,04,20,07,40,7.40
2016,04,20,07,41,7.50
2016,04,20,07,42,7.50
2016,04,20,07,43,7.50
2016,04,20,07,44,7.60
2016,04,20,07,45,7.60
2016,04,20,07,46,7.70
2016,04,20,07,47,7.70
2016,04,20,07,48,7.70
2016,04,20,07,49,7.80
2016,04,20,07,50,7.80
2016,04,20,07,51,7.80
2016,04,20,07,52,7.90
2016,04,20,07,53,7.90
2016,04,20,07,54,7.90
2016,04,20,07,55,8.00
2016,04,20,07,56,8.00
2016,04,20,07,57,8.00
2016,04,20,07,58,8.10
2016,04,20,07,59,8.10
2016,04,20,08,00,8.10
2016,04,20,08,01,8.20
2016,04,20,08,02,8.20
2016,04,20,08,03,8.20
2016,04,20,08,04,8.30
2016,04,20,08,05,8.50
2016,04,20,08,06,8.60
2016,04,20,08,07,8.60
2016,04,20,08,08,8.70
2016,04,20,08,09,8.80
2016,04,20,08,10,8.90
2016,04,20,08,11,9.00
2016,04,20,08,12,9.10
2016,04,20,08,13,9.20
2016,04,20,08,14,9.30
2016,04,20,08,15,9.40
2016,04,20,08,16,9.50
2016,04,20,08,17,9.60
2016,04,20,08,18,9.70
2016,04,20,08,19,9.80
2016,04,20,08,20,9.90
2016,04,20,08,21,9.90
2016,04,20,08,22,10.00
2016,04,20,08,23,10.10
2016,04,20,08,24,10.10
2016,04,20,08,25,10.20
2016,04,20,08,26,10.20
2016,04,20,08,27,10.30
2016,04,20,08,28,10.30
2016,04,20,08,29,10.40
2016,04,20,08,30,10.40
2016,04,20,08,31,10.50
2016,04,20,08,32,10.60
2016,04,20,08,33,10.70
2016,04,20,08,34,10.80
2016,04,20,08,35,10.90
2016,04,20,08,36,11.00
2016,04,20,08,37,11.10
2016,04,20,08,38,11.30
2016,04,20,08,39,11.40
2016,04,20,08,40,11.50
2016,04,20,08,41,11.60
2016,04,20,08,42,11.70
2016,04,20,08,43,11.80
2016,04,20,08,44,11.90
2016,04,20,08,45,12.00
2016,04,20,08,46,12.10
2016,04,20,08,47,12.20
2016,04,20,08,48,12.40
2016,04,20,08,49,12.50
2016,04,20,08,50,12.60
2016,04,20,08,51,12.70
2016,04,20,08,52,12.80
2016,04,20,08,53,13.00
2016,04,20,08,54,13.10
2016,04,20,08,55,13.20
2016,04,20,08,56,13.30
2016,04,20,08,57,13.50
2016,04,20,08,58,13.60
2016,04,20,08,59,13.70
2016,04,20,09,00,13.80
2016,04,20,09,01,13.90
2016,04,20,09,02,14.00
2016,04,20,09,03,14.10
2016,04,20,09,04,14.20
2016,04,20,09,05,14.20
2016,04,20,09,06,14.30
2016,04,20,09,07,14.30
2016,04,20,09,08,14.40
2016,04,20,09,09,14.50
2016,04,20,09,10,14.60
2016,04,20,09,11,14.60
2016,04,20,09,12,14.80
2016,04,20,09,13,14.90
2016,04,20,09,14,15.00
2016,04,20,09,15,15.10
2016,04,20,09,16,15.20
2016,04,20,09,17,15.20
2016,04,20,09,18,15.30
2016,04,20,09,19,15.40
2016,04,20,09,20,15.60
2016,04,20,09,21,15.70
2016,04,20,09,22,15.80
2016,04,20,09,23,16.00
2016,04,20,09,24,16.10
2016,04,20,09,25,16.20
2016,04,20,09,26,16.30
2016,04,20,09,27,16.30
2016,04,20,09,28,16.40
2016,04,20,09,29,16.40
2016,04,20,09,30,16.50
2016,04,20,09,31,16.50
2016,04,20,09,32,16.60
2016,04,20,09,33,16.70
2016,04,20,09,34,16.80
2016,04,20,09,35,16.80
2016,04,20,09,36,16.90
2016,04,20,09,37,17.00
2016,04,20,09,38,17.10
2016,04,20,09,39,17.20
2016,04,20,09,40,17.40
2016,04,20,09,41,17.50
2016,04,20,09,42,17.60
2016,04,20,09,43,17.80
2016,04,20,09,44,17.90
2016,04,20,09,45,18.00
2016,04,20,09,46,18.20
2016,04,20,09,47,18.30
2016,04,20,09,48,18.40
2016,04,20,09,49,18.60
2016,04,20,09,50,18.70
2016,04,20,09,51,18.90
2016,04,20,09,52,19.00
2016,04,20,09,53,19.10
2016,04,20,09,54,19.20
2016,04,20,09,55,19.30
2016,04,20,09,56,19.40
2016,04,20,09,57,19.50
2016,04,20,09,58,19.50
2016,04,20,09,59,19.60
2016,04,20,10,00,19.70
2016,04,20,10,01,19.60
2016,04,20,10,02,19.60
2016,04,20,10,03,19.60
2016,04,20,10,04,19.50
2016,04,20,10,05,19.50
2016,04,20,10,06,19.60
2016,04,20,10,07,19.60
2016,04,20,10,08,19.60
2016,04,20,10,09,19.70
2016,04,20,10,10,19.70
2016,04,20,10,11,19.60
2016,04,20,10,12,19.60
2016,04,20,10,13,19.70
2016,04,20,10,14,19.70
2016,04,20,10,15,19.70
2016,04,20,10,16,19.70
2016,04,20,10,17,19.80
2016,04,20,10,18,19.80
2016,04,20,10,19,19.90
2016,04,20,10,20,19.90
2016,04,20,10,21,19.90
2016,04,20,10,22,19.90
2016,04,20,10,23,19.90
2016,04,20,10,24,19.90
2016,04,20,10,25,19.80
2016,04,20,10,26,19.80
2016,04,20,10,27,19.70
2016,04,20,10,28,19.70
2016,04,20,10,29,19.70
2016,04,20,10,30,19.60
2016,04,20,10,31,19.60
2016,04,20,10,32,19.60
2016,04,20,10,33,19.50
2016,04,20,10,34,19.50
2016,04,20,10,35,19.50
2016,04,20,10,36,19.50
2016,04,20,10,37,19.50
2016,04,20,10,38,19.50
2016,04,20,10,39,19.60
2016,04,20,10,40,19.60
2016,04,20,10,41,19.60
2016,04,20,10,42,19.60
2016,04,20,10,43,19.60
2016,04,20,10,44,19.60
2016,04,20,10,45,19.70
2016,04,20,10,46,19.70
2016,04,20,10,47,19.70
2016,04,20,10,48,19.70
2016,04,20,10,49,19.80
2016,04,20,10,50,19.80
2016,04,20,10,51,19.80
2016,04,20,10,52,19.80
2016,04,20,10,53,19.90
2016,04,20,10,54,19.90
2016,04,20,10,55,19.90
2016,04,20,10,56,19.90
2016,04,20,10,57,20.00
2016,04,20,10,58,20.00
2016,04,20,10,59,20.00
2016,04,20,11,00,20.00
2016,04,20,11,01,20.10
2016,04,20,11,02,20.10
2016,04,20,11,03,20.20
2016,04,20,11,04,20.30
2016,04,20,11,05,20.40
2016,04,20,11,06,20.50
2016,04,20,11,07,20.60
2016,04,20,11,08,20.70
2016,04,20,11,09,20.70
2016,04,20,11,10,20.70
2016,04,20,11,11,20.70
2016,04,20,11,12,20.70
2016,04,20,11,13,20.70
2016,04,20,11,14,20.70
2016,04,20,11,15,20.70
2016,04,20,11,16,20.70
2016,04,20,11,17,20.80
2016,04,20,11,18,20.80
2016,04,20,11,19,20.90
2016,04,20,11,20,21.00
2016,04,20,11,21,21.00
2016,04,20,11,22,21.10
2016,04,20,11,23,21.20
2016,04,20,11,24,21.30
2016,04,20,11,25,21.40
2016,04,20,11,26,21.60
2016,04,20,11,27,21.70
2016,04,20,11,28,21.70
2016,04,20,11,29,21.70
2016,04,20,11,30,21.70
2016,04,20,11,31,21.70
2016,04,20,11,32,21.80
2016,04,20,11,33,21.80
2016,04,20,11,34,21.80
2016,04,20,11,35,21.90
2016,04,20,11,36,21.90
2016,04,20,11,37,21.90
2016,04,20,11,38,22.00
2016,04,20,11,39,22.00
2016,04,20,11,40,22.10
2016,04,20,11,41,22.10
2016,04,20,11,42,22.10
2016,04,20,11,43,22.00
2016,04,20,11,44,22.00
2016,04,20,11,45,21.90
2016,04,20,11,46,21.90
2016,04,20,11,47,22.00
2016,04,20,11,48,22.00
2016,04,20,11,49,22.00
2016,04,20,11,50,22.00
2016,04,20,11,51,22.00
2016,04,20,11,52,22.00
2016,04,20,11,53,22.00
2016,04,20,11,54,22.00
2016,04,20,11,55,22.00
2016,04,20,11,56,22.00
2016,04,20,11,57,22.00
2016,04,20,11,58,22.10
2016,04,20,11,59,22.20
2016,04,20,12,00,22.20
2016,04,20,12,01,22.10
2016,04,20,12,02,22.00
2016,04,20,12,03,22.00
2016,04,20,12,04,22.00
2016,04,20,12,05,21.90
2016,04,20,12,06,21.80
2016,04,20,12,07,21.80
2016,04,20,12,08,21.80
2016,04,20,12,09,21.80
2016,04,20,12,10,21.80
2016,04,20,12,11,21.80
2016,04,20,12,12,21.70
2016,04,20,12,13,21.70
2016,04,20,12,14,21.70
2016,04,20,12,15,21.70
2016,04,20,12,16,21.70
2016,04,20,12,17,21.60
2016,04,20,12,18,21.60
2016,04,20,12,19,21.60
2016,04,20,12,20,21.60
2016,04,20,12,21,21.60
2016,04,20,12,22,21.60
2016,04,20,12,23,21.70
2016,04,20,12,24,21.70
2016,04,20,12,25,21.80
2016,04,20,12,26,21.80
2016,04,20,12,27,21.90
2016,04,20,12,28,22.00
2016,04,20,12,29,22.00
2016,04,20,12,30,22.00
2016,04,20,12,31,22.00
2016,04,20,12,32,21.90
2016,04,20,12,33,21.70
2016,04,20,12,34,21.60
2016,04,20,12,35,21.60
2016,04,20,12,36,21.60
2016,04,20,12,37,21.60
2016,04,20,12,38,21.60
2016,04,20,12,39,21.60
2016,04,20,12,40,21.70
2016,04,20,12,41,21.70
2016,04,20,12,42,21.80
2016,04,20,12,43,21.90
2016,04,20,12,44,22.00
2016,04,20,12,45,22.10
2016,04,20,12,46,22.10
2016,04,20,12,47,22.20
2016,04,20,12,48,22.30
2016,04,20,12,49,22.40
2016,04,20,12,50,22.50
2016,04,20,12,51,22.50
2016,04,20,12,52,22.60
2016,04,20,12,53,22.70
2016,04,20,12,54,22.80
2016,04,20,12,55,22.80
2016,04,20,12,56,22.80
2016,04,20,12,57,22.80
2016,04,20,12,58,22.80
2016,04,20,12,59,22.80
2016,04,20,13,00,22.80
2016,04,20,13,01,22.90
2016,04,20,13,02,22.90
2016,04,20,13,03,22.90
2016,04,20,13,04,22.90
2016,04,20,13,05,22.90
2016,04,20,13,06,22.90
2016,04,20,13,07,22.90
2016,04,20,13,08,22.90
2016,04,20,13,09,22.90
2016,04,20,13,10,22.80
2016,04,20,13,11,22.80
2016,04,20,13,12,22.80
2016,04,20,13,13,22.80
2016,04,20,13,14,22.80
2016,04,20,13,15,22.90
2016,04,20,13,16,22.80
2016,04,20,13,17,22.80
2016,04,20,13,18,22.80
2016,04,20,13,19,22.80
2016,04,20,13,20,22.90
2016,04,20,13,21,22.90
2016,04,20,13,22,22.90
2016,04,20,13,23,23.00
2016,04,20,13,24,23.00
2016,04,20,13,25,23.10
2016,04,20,13,26,23.10
2016,04,20,13,27,23.20
2016,04,20,13,28,23.20
2016,04,20,13,29,23.30
2016,04,20,13,30,23.30
2016,04,20,13,31,23.30
2016,04,20,13,32,23.20
2016,04,20,13,33,23.20
2016,04,20,13,34,23.20
2016,04,20,13,35,23.20
2016,04,20,13,36,23.20
2016,04,20,13,37,23.30
2016,04,20,13,38,23.30
2016,04,20,13,39,23.40
2016,04,20,13,40,23.50
2016,04,20,13,41,23.50
2016,04,20,13,42,23.50
2016,04,20,13,43,23.50
2016,04,20,13,44,23.60
2016,04,20,13,45,23.70
2016,04,20,13,46,23.80
2016,04,20,13,47,23.80
2016,04,20,13,48,23.90
2016,04,20,13,49,24.00
2016,04,20,13,50,24.00
2016,04,20,13,51,24.10
2016,04,20,13,52,24.10
2016,04,20,13,53,24.10
2016,04,20,13,54,24.00
2016,04,20,13,55,24.10
2016,04,20,13,56,24.00
2016,04,20,13,57,24.00
2016,04,20,13,58,24.00
2016,04,20,13,59,23.90
2016,04,20,14,00,24.00
2016,04,20,14,01,24.10
2016,04,20,14,02,24.10
2016,04,20,14,03,24.20
2016,04,20,14,04,24.30
2016,04,20,14,05,24.40
2016,04,20,14,06,24.40
2016,04,20,14,07,24.50
2016,04,20,14,08,24.60
2016,04,20,14,09,24.70
2016,04,20,14,10,24.70
2016,04,20,14,11,24.80
2016,04,20,14,12,24.80
2016,04,20,14,13,24.80
2016,04,20,14,14,24.70
2016,04,20,14,15,24.70
2016,04,20,14,16,24.70
2016,04,20,14,17,24.70
2016,04,20,14,18,24.70
2016,04,20,14,19,24.70
2016,04,20,14,20,24.70
2016,04,20,14,21,24.70
2016,04,20,14,22,24.70
2016,04,20,14,23,24.70
2016,04,20,14,24,24.70
2016,04,20,14,25,24.70
2016,04,20,14,26,24.70
2016,04,20,14,27,24.60
2016,04,20,14,28,24.60
2016,04,20,14,29,24.60
2016,04,20,14,30,24.60
2016,04,20,14,31,24.50
2016,04,20,14,32,24.60
2016,04,20,14,33,24.60
2016,04,20,14,34,24.60
2016,04,20,14,35,24.60
2016,04,20,14,36,24.60
2016,04,20,14,37,24.70
2016,04,20,14,38,24.70
2016,04,20,14,39,24.70
2016,04,20,14,40,24.80
2016,04,20,14,41,24.80
2016,04,20,14,42,24.80
2016,04,20,14,43,24.90
2016,04,20,14,44,24.90
2016,04,20,14,45,25.00
2016,04,20,14,46,25.10
2016,04,20,14,47,25.10
2016,04,20,14,48,25.10
2016,04,20,14,49,25.10
2016,04,20,14,50,25.10
2016,04,20,14,51,25.00
2016,04,20,14,52,25.00
2016,04,20,14,53,24.90
2016,04,20,14,54,25.00
2016,04,20,14,55,25.00
2016,04,20,14,56,25.00
2016,04,20,14,57,25.00
2016,04,20,14,58,25.10
2016,04,20,14,59,25.20
2016,04,20,15,00,25.20
2016,04,20,15,01,25.30
2016,04,20,15,02,25.40
2016,04,20,15,03,25.40
2016,04,20,15,04,25.40
2016,04,20,15,05,25.30
2016,04,20,15,06,25.30
2016,04,20,15,07,25.20
2016,04,20,15,08,25.20
2016,04,20,15,09,25.20
2016,04,20,15,10,25.20
2016,04,20,15,11,25.20
2016,04,20,15,12,25.20
2016,04,20,15,13,25.20
2016,04,20,15,14,25.30
2016,04,20,15,15,25.30
2016,04,20,15,16,25.40
2016,04,20,15,17,25.50
2016,04,20,15,18,25.60
2016,04,20,15,19,25.70
2016,04,20,15,20,25.80
2016,04,20,15,21,25.80
2016,04,20,15,22,26.00
2016,04,20,15,23,26.00
2016,04,20,15,24,26.20
2016,04,20,15,25,26.30
2016,04,20,15,26,26.30
2016,04,20,15,27,26.40
2016,04,20,15,28,26.50
2016,04,20,15,29,26.60
2016,04,20,15,30,26.70
2016,04,20,15,31,26.80
2016,04,20,15,32,26.90
2016,04,20,15,33,27.00
2016,04,20,15,34,27.10
2016,04,20,15,35,27.20
2016,04,20,15,36,27.30
2016,04,20,15,37,27.30
2016,04,20,15,38,27.40
2016,04,20,15,39,27.40
2016,04,20,15,40,27.40
2016,04,20,15,41,27.40
2016,04,20,15,42,27.30
2016,04,20,15,43,27.10
2016,04,20,15,44,26.90
2016,04,20,15,45,26.80
2016,04,20,15,46,26.70
2016,04,20,15,47,26.60
2016,04,20,15,48,26.60
2016,04,20,15,49,26.60
2016,04,20,15,50,26.60
2016,04,20,15,51,26.60
2016,04,20,15,52,26.60
2016,04,20,15,53,26.60
2016,04,20,15,54,26.60
2016,04,20,15,55,26.60
2016,04,20,15,56,26.60
2016,04,20,15,57,26.50
2016,04,20,15,58,26.40
2016,04,20,15,59,26.40
2016,04,20,16,00,26.30
2016,04,20,16,01,26.30
2016,04,20,16,02,26.40
2016,04,20,16,03,26.40
2016,04,20,16,04,26.50
2016,04,20,16,05,26.50
2016,04,20,16,06,26.60
2016,04,20,16,07,26.60
2016,04,20,16,08,26.60
2016,04,20,16,09,26.60
2016,04,20,16,10,26.60
2016,04,20,16,11,26.60
2016,04,20,16,12,26.60
2016,04,20,16,13,26.60
2016,04,20,16,14,26.60
2016,04,20,16,15,26.60
2016,04,20,16,16,26.50
2016,04,20,16,17,26.50
2016,04,20,16,18,26.50
2016,04,20,16,19,26.60
2016,04,20,16,20,26.60
2016,04,20,16,21,26.60
2016,04,20,16,22,26.70
2016,04,20,16,23,26.70
2016,04,20,16,24,26.70
2016,04,20,16,25,26.70
2016,04,20,16,26,26.80
2016,04,20,16,27,26.80
2016,04,20,16,28,26.80
2016,04,20,16,29,26.70
2016,04,20,16,30,26.70
2016,04,20,16,31,26.70
2016,04,20,16,32,26.70
2016,04,20,16,33,26.70
2016,04,20,16,34,26.70
2016,04,20,16,35,26.70
2016,04,20,16,36,26.70
2016,04,20,16,37,26.80
2016,04,20,16,38,26.80
2016,04,20,16,39,26.90
2016,04,20,16,40,26.90
2016,04,20,16,41,26.90
2016,04,20,16,42,26.90
2016,04,20,16,43,26.90
2016,04,20,16,44,26.90
2016,04,20,16,45,26.80
2016,04,20,16,46,26.70
2016,04,20,16,47,26.60
2016,04,20,16,48,26.60
2016,04,20,16,49,26.60
2016,04,20,16,50,26.50
2016,04,20,16,51,26.40
2016,04,20,16,52,26.40
2016,04,20,16,53,26.40
2016,04,20,16,54,26.30
2016,04,20,16,55,26.30
2016,04,20,16,56,26.30
2016,04,20,16,57,26.30
2016,04,20,16,58,26.30
2016,04,20,16,59,26.30
2016,04,20,17,00,26.30
2016,04,20,17,01,26.40
2016,04,20,17,02,26.40
2016,04,20,17,03,26.40
2016,04,20,17,04,26.50
2016,04,20,17,05,26.50
2016,04,20,17,06,26.60
2016,04,20,17,07,26.70
2016,04,20,17,08,26.80
2016,04,20,17,09,26.80
2016,04,20,17,10,26.80
2016,04,20,17,11,26.80
2016,04,20,17,12,26.80
2016,04,20,17,13,26.80
2016,04,20,17,14,26.80
2016,04,20,17,15,26.70
2016,04,20,17,16,26.70
2016,04,20,17,17,26.60
2016,04,20,17,18,26.60
2016,04,20,17,19,26.50
2016,04,20,17,20,26.50
2016,04,20,17,21,26.40
2016,04,20,17,22,26.40
2016,04,20,17,23,26.40
2016,04,20,17,24,26.30
2016,04,20,17,25,26.30
2016,04,20,17,26,26.20
2016,04,20,17,27,26.20
2016,04,20,17,28,26.20
2016,04,20,17,29,26.20
2016,04,20,17,30,26.20
2016,04,20,17,31,26.30
2016,04,20,17,32,26.30
2016,04,20,17,33,26.30
2016,04,20,17,34,26.30
2016,04,20,17,35,26.30
2016,04,20,17,36,26.40
2016,04,20,17,37,26.40
2016,04,20,17,38,26.50